Race Coverage Navigation

TS # 11 / Kayenta, AZ  2019

 


TS STATS
TS Distance 71.83 
Total Distance 749.71 
Miles To Go 2320.57 
TS Climbing 700 
Total Climbing
TS  Elevation
TS  Net Elevation 1093 
Map Filename Open Map 
Directions Filename  
Latitude 36.71 
Longitude -110.25 
Google Map  TimeStation Map 


TS Arrival Data
Arr Ord  #/Name Arrival DT TS Dst Avg This TS Avg Overall
 1 R404 - Team Viasat - Carlsbad  06/13/2019 1:43 71.83  22.33  21.6 
 2 R403 - Team Viasat-Denver  06/13/2019 4:02 71.83  19.15  20.25 
 3 R401 - San Diego Sports Medicine/Zoca  06/13/2019 7:51 71.83  16.77  18.38 
 4 377 - Christoph Strasser  06/13/2019 8:29 71.83  16.7  18.82 
 5 R400 - HTX Velo Femme  06/13/2019 9:43 71.83  16.77  17.58 
 6 R200 - EY Legacy Builders 2019  06/13/2019 10:08 71.83  16.2  17.46 
 7 R205 - Team OB2  06/13/2019 11:00 71.83  16.58  17.09 
 8 R402 - SUWOS  06/13/2019 14:16 71.83  17.52  15.87 
 9 279 - Marko Baloh  06/13/2019 14:30 71.83  10.83  16.35 
 10 612 - Markus K. Brandl  06/13/2019 17:06 71.83  16.58  15.36 
 11 609 - Jakob Olsen  06/13/2019 17:25 71.83  17.81  15.28 
 12 617 - SOLO.kiwi (Craig Harper)  06/13/2019 17:44 71.83  17.38  15.15 
 13 288 - Dave Haase  06/13/2019 18:16 71.83  18.66  15.1 
 14 R203 - Mike 'n' Jay Giretto con Amici  06/13/2019 18:29 71.83  18.5  14.6 
 15 349 - Mark Pattinson  06/13/2019 18:32 71.83  21.13  15.01 
 16 R201 - IN OUR PRIME  06/13/2019 18:56 71.83  18.34  14.49 
 17 529 - Isa Pulver  06/13/2019 19:26 71.83  15.79  14.6 
 18 R209 - Workhorses  06/13/2019 19:58 71.83  17.17  14.18 
 19 R111 - Jennifer Orr  06/13/2019 20:28 71.83  15.39  14.1 
 20 329 - Peter Oyler  06/13/2019 20:29 71.83  16.97  14.45 
 21 R124 - Andres Rodriguez  06/13/2019 21:02 71.83  15.18  13.96 
 22 623 - Ultra Paka Racing Team (Daniel Polman)  06/13/2019 21:58 71.83  17.38  13.93 
 23 603 - Alan Bradley  06/13/2019 22:49 71.83  14.61  13.77 
 24 442 - Joe Barr  06/13/2019 23:20 71.83  11.71  13.68 
 25 620 - Team Jefferson (Allan Jefferson)  06/13/2019 23:26 71.83  14.91  13.57 
 26 615 - Philipp Amhof  06/14/2019 0:09 71.83  19.24  13.41 
 27 622 - Thomas Odom-Team Kyle Pease Foundation  06/14/2019 0:09 71.83  9.88  13.39 
 28 604 - Chieko Ozawa  06/14/2019 1:17 71.83  16.39  13.1 
 29 161 - Seana Hogan  06/14/2019 1:17 71.83  18.99  13.12 
 30 416 - Leah Goldstein  06/14/2019 1:21 71.83  17.52  13.1 
 31 R106 - Damaceleste.com (Valentina Tanzi)  06/14/2019 2:47 71.83  11.55  12.61 
 32 367 - Daniela Genovesi  06/14/2019 3:24 71.83  16.64  12.65 
 33 R120 - Team Next Step (Peter Pedersen)  06/14/2019 4:07 71.83  15.23  12.34 
 34 568 - Alexandra Meixner  06/14/2019 4:15 71.83  12.57  12.46 
 35 559 - Team Martin RAAM 2019 (Martin Bergmeister)  06/14/2019 4:55 71.83  11.87  12.4 
 36 R104 - Team everve Christian (Christian Beichel)  06/14/2019 6:16 71.83  9.47  11.95 
 37 510 - John C. Tarlton  06/14/2019 8:32 71.83  12.01  11.71 
 38 610 - Kabir Rachure  06/14/2019 8:37 71.83  12.17  11.66 
 39 R103 - Chris Davies  06/14/2019 8:56 71.83  12.01  11.46 
 40 R84 - James Jason Ingels  06/14/2019 9:03 71.83  9.77  11.45 
 41 611 - Marcelo Soares " MIXIRICA "  06/14/2019 9:07 71.83  11.46  11.57 
 42 411 - Geoff Brunner  06/14/2019 9:34 71.83  7.19  11.53 
 43 539 - Kari Rouvinen  06/14/2019 9:51 71.83  7.84  11.46 
 44 399 - Valerio Zamboni  06/14/2019 10:55 71.83  11.22  11.3 
 45 618 - GREGORY ROBINSON  06/14/2019 11:22 71.83  9.41  11.16 
 46 608 - Elin Starup  06/14/2019 12:18 71.83  9.8  10.98 
 47 R114 - Krishna Prakash  06/14/2019 13:39 71.83  13.22  10.67 
 48 R122 - Kirk Gentle  06/14/2019 13:41 71.83  11.68  10.66 
 49 527 - TALABARDON (Herve Talabardon)  06/14/2019 14:20 71.83  18.74  10.73 
 50 R105 - 2nd Chance Racing (Craig Johnson)  06/14/2019 14:21 71.83  12.64  10.58 
 51 424 - Team i RON man Veterans supporting Veterans  06/14/2019 14:31 71.83  16.45  10.71 
 52 R119 - Team BlueLine (Martha Hall)  06/14/2019 14:33 71.83  11.43  10.51 
 53 R112 - John Hoopingarner  06/14/2019 14:51 71.83  12.14  10.5 
 54 R117 - ROGIE (Roger Foote)  06/14/2019 15:05 71.83  12.94  10.46 
 55 R115 - Kym Louie  06/14/2019 15:09 71.83  11.34  10.43 
 56 R121 - Ironmae (Rosecler Costa)  06/14/2019 15:53 71.83  9.91  10.32 
 57 605 - Christian Echavarria  06/14/2019 16:04 71.83  15.02  10.46 
 58 R110 - James Golding  06/14/2019 16:18 71.83  14.18  10.29 
 59 607 - Sabine Bird (Team Bean)  06/14/2019 16:19 71.83  14.46  10.37 
 60 R116 - Philippe May  06/14/2019 17:24 71.83  12.38  10.13 
 61 563 - Team Nico Ultracycling - In Fight against Cancer   06/14/2019 19:18 71.83  11.84  10.01 
 62 T800 - Backstedt Racing Project 14  06/17/2019 1:23 71.83  21.02  22.12 
 63 T411 - team alpha - tischlerei groemmer  06/17/2019 1:34 71.83  18.82  21.91 
 64 T401 - Data Techniques powered by Networks Centre  06/17/2019 2:02 71.83  20.33  21.51 
 65 T404 - Gentlemen of speed  06/17/2019 3:06 71.83  21.02  20.9 
 66 T201 - EAT WELL  06/17/2019 4:07 71.83  19.86  20.21 
 67 T407 - Julian Becker   06/17/2019 5:18 71.83  19.24  19.72 
 68 T805 - Team Oceanside  06/17/2019 5:28 71.83  18.74  19.78 
 69 T412 - Team Aspect  06/17/2019 5:57 71.83  18.18  19.43 
 70 T807 - Team ZOE International  06/17/2019 6:14 71.83  18.9  19.41 
 71 T802 - Scorchers  06/17/2019 7:06 71.83  18.74  18.94 
 72 T416 - Team Rotary Raams Polio  06/17/2019 7:29 71.83  17.88  18.72 
 73 T406 - Operation Walk Midwest  06/17/2019 7:32 71.83  18.11  18.62 
 74 T804 - Team FSHD Skyland Trail  06/17/2019 7:49 71.83  23.81  18.62 
 75 T400 - Cantastic4  06/17/2019 7:53 71.83  19.86  18.41 
 76 T408 - Radeln-fuer-Kinder (Cycling-for-Kids)  06/17/2019 7:59 71.83  16.39  18.43 
 77 T808 - Antonia's Friends 2019  06/17/2019 8:00 71.83  18.34  18.56 
 78 T418 - The Opportunists  06/17/2019 8:49 71.83  17.1  18.13 
 79 T202 - Integra Medical - BAA Racing  06/17/2019 10:01 71.83  17.88  17.44 
 80 T403 - EKJ Denmark  06/17/2019 10:18 71.83  16.33  17.4 
 81 T414 - Brazil Nuts  06/17/2019 10:28 71.83  19.77  17.41 
 82 T410 - Soap-Aid  06/17/2019 10:30 71.83  18.66  17.37 
 83 T803 - Team EndoPark  06/17/2019 10:50 71.83  17.74  17.31 
 84 T206 - Project Linear Acceleration  06/17/2019 11:18 71.83  15.12  16.96 
 85 T405 - High Rollers  06/17/2019 12:04 71.83  16.14  16.73 
 86 T204 - Lucan CRC  06/17/2019 12:18 71.83  16.51  16.57 
 87 T415 - TEAM FIRE VELO 935  06/17/2019 12:46 71.83  14.66  16.53 
 88 T413 - TEAM BRASIL - SKIPPER  06/17/2019 13:25 71.83  17.1  16.29 
 89 T806 - Team SuperMarrow  06/17/2019 13:30 71.83  16.64  16.33 
 90 T402 - EA/WFP RAAM Team  06/17/2019 13:54 71.83  15.28  16.05 
 91 T417 - Team4RAAM 2019 powered by TGW Living Logistics  06/17/2019 15:03 71.83  13.86  15.75 
 92 T207 - Team Life Time  06/17/2019 15:33 71.83  16.02  15.48 
 93 T801 - Mind Over Matter  06/17/2019 15:52 71.83  13.64  15.5 
 94 T208 - Team Machine  06/17/2019 16:07 71.83  18.03  15.31 
 95 T205 - Prevent Breast Cancer powered by Endomag  06/17/2019 17:20 71.83  16.77  14.92 
 96 T200 - AIR RELAX GoPro TEAM BRASIL  06/17/2019 17:44 71.83  23.81  14.78 
 97 T203 - JPsDuo  06/17/2019 18:20 71.83  17.88  14.62 
 98 T409 - Serpentine Golden Girls  06/17/2019 19:59 71.83  16.39  14.24 
 99 T210 - Bike Wine Team  06/17/2019 22:00 71.83  11.78  13.67